EDT,Max TemperatureF,Mean TemperatureF,Min TemperatureF,Max Dew PointF,MeanDew PointF,Min DewpointF,Max Humidity, Mean Humidity, Min Humidity, Max Sea Level PressureIn, Mean Sea Level PressureIn, Min Sea Level PressureIn, Max VisibilityMiles, Mean VisibilityMiles, Min VisibilityMiles, Max Wind SpeedMPH, Mean Wind SpeedMPH, Max Gust SpeedMPH,PrecipitationIn, CloudCover, Events, WindDirDegrees
2013-10-1,75,58,42,57,47,39,88,74,44,30.02,29.95,29.87,10,5,0,14,1,18,0.00,4,,334
2013-10-2,75,62,48,57,52,45,88,74,50,29.98,29.91,29.87,10,6,0,12,2,,0.00,4,,267
2013-10-3,75,60,44,54,47,39,88,71,33,30.12,30.06,29.99,10,7,0,7,1,,0.00,2,,202
2013-10-4,59,54,48,54,50,43,88,85,77,30.12,30.08,30.06,10,9,0,7,1,,0.44,6,,244
2013-10-5,64,60,55,55,53,52,88,80,64,30.13,30.10,30.07,10,8,3,4,1,,0.01,8,,271
2013-10-6,59,55,51,55,49,45,94,82,72,30.22,30.17,30.12,10,8,2,6,1,,0.26,8,,19
2013-10-7,75,63,51,63,54,48,88,77,65,30.12,29.93,29.72,10,9,2,32,5,44,0.84,7,,192
2013-10-8,64,52,39,48,39,34,87,64,34,30.40,30.19,29.93,10,9,1,15,4,20,0.00,0,,338
2013-10-9,62,48,33,39,33,30,87,67,34,30.51,30.44,30.37,10,6,0,10,2,,0.00,4,,67
2013-10-10,57,49,41,46,44,36,87,74,59,30.34,30.25,30.20,10,10,0,7,1,,0.00,1,,197
2013-10-11,73,58,42,45,41,36,87,67,27,30.20,30.16,30.10,10,8,0,14,1,,0.00,2,,27
2013-10-12,55,46,37,48,43,34,87,80,72,30.40,30.31,30.19,10,9,1,9,2,17,0.00,5,,46
2013-10-13,60,50,41,45,42,36,87,72,52,30.45,30.41,30.39,10,9,0,9,1,,0.00,4,,108
2013-10-14,68,52,37,50,42,34,87,71,46,30.40,30.32,30.22,10,7,0,8,1,,0.00,6,,220
2013-10-15,66,58,51,52,49,45,82,71,59,30.27,30.23,30.17,10,10,6,6,0,,0.00,8,,189
2013-10-16,60,53,46,46,45,43,87,74,59,30.16,30.05,29.91,10,10,8,6,0,,0.00,4,,203
2013-10-17,69,58,48,52,45,41,87,67,37,29.90,29.82,29.70,10,10,9,12,2,17,0.00,4,,260
2013-10-18,62,50,39,55,43,34,88,65,44,29.92,29.76,29.59,10,10,6,12,4,22,0.12,4,,244
2013-10-19,64,48,33,43,36,28,87,63,39,29.97,29.88,29.74,10,9,0,13,3,20,0.00,2,,196
2013-10-20,57,46,35,45,35,30,87,62,38,30.03,29.85,29.69,10,9,0,14,3,21,0.01,3,,259
2013-10-21,64,47,30,39,34,27,86,63,37,30.12,30.04,29.96,10,8,0,14,2,18,0.00,2,,191
2013-10-22,57,46,35,46,39,28,81,71,54,29.95,29.81,29.72,10,10,5,12,6,16,0.00,2,,219
2013-10-23,51,40,30,34,29,25,86,64,40,29.80,29.70,29.60,10,9,0,6,1,,0.00,3,,223
2013-10-24,48,38,28,32,26,23,80,55,40,29.88,29.77,29.66,10,10,10,16,5,24,0.00,4,,249
2013-10-25,46,37,26,30,25,21,81,61,37,30.14,30.02,29.89,10,10,10,14,4,21,0.00,4,,284
2013-10-26,51,38,24,30,24,19,80,57,35,30.14,30.00,29.84,10,10,6,20,4,28,0.00,3,,204
2013-10-27,50,41,32,30,28,25,75,54,37,30.05,29.89,29.78,10,10,10,15,6,22,0.00,6,,235
2013-10-28,55,40,26,32,25,19,80,61,36,30.35,30.16,30.06,10,10,3,16,3,24,0.00,2,,307
2013-10-29,44,32,21,21,17,10,86,59,25,30.46,30.40,30.36,10,10,7,6,1,,0.00,0,,351
2013-10-30,51,38,26,34,25,16,86,64,49,30.35,30.26,30.19,10,10,2,9,1,,0.00,3,,230
2013-10-31,60,43,26,54,35,21,88,82,74,30.24,30.06,29.73,10,4,1,16,1,23,0.29,6,,191